• In Deutschland
  • Länderverzeichnis
  • Für 7 Tage
  • Wassertemperatur
  • Satellitenkarten
  • Wetterkarte
  • Widgets
  • user-avatar
    Anmelden

    Stündliche Wetter San Luis

    Heute, 21 Januar, Sonntag

    Zeit Temperatur Niederschläge Wind Luftdruck Luftfeuchtigkeit
    00:00 +25°C° 0 mm 5 m/S 696 mmHg 46%
    01:00 +23°C° 0 mm 6 m/S 695 mmHg 49%
    02:00 +23°C° 0 mm 7 m/S 695 mmHg 56%
    03:00 +22°C° 0 mm 6 m/S 695 mmHg 58%
    04:00 +22°C° 0 mm 6 m/S 695 mmHg 60%
    05:00 +22°C° 0 mm 6 m/S 695 mmHg 62%
    06:00 +23°C° 0 mm 6 m/S 695 mmHg 57%
    07:00 +24°C° 0 mm 6 m/S 696 mmHg 52%
    08:00 +27°C° 0 mm 6 m/S 696 mmHg 47%
    09:00 +28°C° 0 mm 5 m/S 696 mmHg 41%
    10:00 +30°C° 0 mm 4 m/S 696 mmHg 35%
    11:00 +32°C° 0 mm 4 m/S 696 mmHg 29%
    12:00 +33°C° 0 mm 3 m/S 696 mmHg 28%
    13:00 +33°C° 0 mm 3 m/S 695 mmHg 26%
    14:00 +34°C° 0 mm 2 m/S 695 mmHg 24%
    15:00 +34°C° 0 mm 2 m/S 694 mmHg 25%
    16:00 +34°C° 0 mm 2 m/S 694 mmHg 25%
    17:00 +33°C° 0 mm 1 m/S 693 mmHg 26%
    18:00 +31°C° 0 mm 2 m/S 693 mmHg 29%
    19:00 +29°C° 0 mm 2 m/S 693 mmHg 32%
    20:00 +28°C° 0 mm 2 m/S 693 mmHg 34%
    21:00 +27°C° 0,1 mm 3 m/S 693 mmHg 36%
    22:00 +27°C° 0,1 mm 3 m/S 693 mmHg 37%
    23:00 +26°C° 0,1 mm 4 m/S 694 mmHg 38%

    Morgen, 22 Januar, Montag

    Zeit Temperatur Niederschläge Wind Luftdruck Luftfeuchtigkeit
    00:00 +25°C° 0,2 mm 4 m/S 694 mmHg 41%
    01:00 +25°C° 0,2 mm 4 m/S 693 mmHg 44%
    02:00 +24°C° 0,2 mm 3 m/S 693 mmHg 47%
    03:00 +24°C° 0,2 mm 3 m/S 693 mmHg 48%
    04:00 +24°C° 0,2 mm 3 m/S 693 mmHg 50%
    05:00 +22°C° 0,2 mm 3 m/S 693 mmHg 51%
    06:00 +25°C° 0 mm 3 m/S 693 mmHg 46%
    07:00 +26°C° 0 mm 4 m/S 694 mmHg 42%
    08:00 +28°C° 0 mm 5 m/S 694 mmHg 37%
    09:00 +29°C° 0 mm 5 m/S 694 mmHg 34%
    10:00 +32°C° 0 mm 5 m/S 694 mmHg 31%
    11:00 +33°C° 0 mm 5 m/S 694 mmHg 27%
    12:00 +34°C° 0 mm 4 m/S 694 mmHg 26%
    13:00 +34°C° 0 mm 4 m/S 693 mmHg 25%
    14:00 +35°C° 0 mm 3 m/S 693 mmHg 24%
    15:00 +35°C° 0 mm 2 m/S 692 mmHg 24%
    16:00 +35°C° 0 mm 2 m/S 692 mmHg 24%
    17:00 +34°C° 0 mm 1 m/S 691 mmHg 24%
    18:00 +33°C° 0 mm 1 m/S 691 mmHg 27%
    19:00 +31°C° 0 mm 2 m/S 691 mmHg 29%
    20:00 +29°C° 0 mm 2 m/S 691 mmHg 32%
    21:00 +28°C° 0,6 mm 2 m/S 691 mmHg 37%
    22:00 +27°C° 0,6 mm 2 m/S 692 mmHg 42%
    23:00 +26°C° 0,6 mm 2 m/S 692 mmHg 47%

    übermorgen, 23 Januar, Dienstag

    Zeit Temperatur Niederschläge Wind Luftdruck Luftfeuchtigkeit
    00:00 +26°C° 0,1 mm 3 m/S 692 mmHg 47%
    01:00 +25°C° 0,1 mm 3 m/S 692 mmHg 46%
    02:00 +25°C° 0,1 mm 4 m/S 692 mmHg 46%
    03:00 +25°C° 0 mm 3 m/S 692 mmHg 46%
    04:00 +25°C° 0 mm 3 m/S 692 mmHg 47%
    05:00 +24°C° 0 mm 3 m/S 692 mmHg 48%
    06:00 +25°C° 0,3 mm 3 m/S 693 mmHg 48%
    07:00 +25°C° 0,3 mm 3 m/S 693 mmHg 49%
    08:00 +26°C° 0,3 mm 3 m/S 694 mmHg 50%
    09:00 +28°C° 0 mm 2 m/S 694 mmHg 44%
    10:00 +30°C° 0 mm 2 m/S 695 mmHg 37%
    11:00 +32°C° 0 mm 1 m/S 695 mmHg 31%
    12:00 +33°C° 0 mm 1 m/S 695 mmHg 28%
    13:00 +35°C° 0 mm 2 m/S 694 mmHg 26%
    14:00 +37°C° 0 mm 2 m/S 694 mmHg 23%
    15:00 +36°C° 0,1 mm 2 m/S 693 mmHg 25%
    16:00 +35°C° 0,1 mm 2 m/S 693 mmHg 28%
    17:00 +35°C° 0,1 mm 3 m/S 693 mmHg 30%
    18:00 +33°C° 0,1 mm 3 m/S 693 mmHg 34%
    19:00 +30°C° 0,1 mm 4 m/S 693 mmHg 39%
    20:00 +28°C° 0,1 mm 5 m/S 693 mmHg 44%
    21:00 +28°C° 0,3 mm 5 m/S 694 mmHg 46%
    22:00 +27°C° 0,3 mm 5 m/S 694 mmHg 49%
    23:00 +26°C° 0,3 mm 4 m/S 695 mmHg 52%

    24 Januar, Mittwoch

    Zeit Temperatur Niederschläge Wind Luftdruck Luftfeuchtigkeit
    00:00 +26°C° 0 mm 4 m/S 695 mmHg 51%
    01:00 +25°C° 0 mm 4 m/S 695 mmHg 49%
    02:00 +25°C° 0 mm 4 m/S 695 mmHg 48%
    03:00 +23°C° 0 mm 5 m/S 696 mmHg 49%
    04:00 +22°C° 0 mm 6 m/S 696 mmHg 50%
    05:00 +21°C° 0 mm 8 m/S 696 mmHg 51%
    06:00 +21°C° 0,3 mm 7 m/S 697 mmHg 52%
    07:00 +21°C° 0,3 mm 7 m/S 698 mmHg 53%
    08:00 +22°C° 0,3 mm 7 m/S 699 mmHg 54%
    09:00 +23°C° 0,1 mm 7 m/S 700 mmHg 51%
    10:00 +24°C° 0,1 mm 7 m/S 700 mmHg 48%
    11:00 +26°C° 0,1 mm 7 m/S 700 mmHg 45%
    12:00 +27°C° 0 mm 7 m/S 700 mmHg 41%
    13:00 +29°C° 0 mm 8 m/S 700 mmHg 36%
    14:00 +32°C° 0 mm 8 m/S 699 mmHg 32%
    15:00 +32°C° 0,2 mm 8 m/S 699 mmHg 31%
    16:00 +32°C° 0,2 mm 8 m/S 698 mmHg 31%
    17:00 +32°C° 0,2 mm 9 m/S 698 mmHg 30%
    18:00 +29°C° 0,3 mm 8 m/S 698 mmHg 34%
    19:00 +28°C° 0,3 mm 6 m/S 698 mmHg 37%
    20:00 +26°C° 0,3 mm 5 m/S 698 mmHg 40%
    21:00 +25°C° 0,2 mm 5 m/S 698 mmHg 40%
    22:00 +23°C° 0,2 mm 5 m/S 698 mmHg 41%
    23:00 +23°C° 0,2 mm 5 m/S 699 mmHg 41%

    25 Januar, Donnerstag

    Zeit Temperatur Niederschläge Wind Luftdruck Luftfeuchtigkeit
    00:00 +22°C° 0,1 mm 5 m/S 698 mmHg 41%
    01:00 +22°C° 0,1 mm 5 m/S 698 mmHg 41%
    02:00 +22°C° 0,1 mm 5 m/S 697 mmHg 41%
    03:00 +21°C° 0,3 mm 5 m/S 697 mmHg 46%
    04:00 +21°C° 0,3 mm 5 m/S 697 mmHg 52%
    05:00 +20°C° 0,3 mm 5 m/S 697 mmHg 58%
    06:00 +22°C° 0,4 mm 5 m/S 697 mmHg 58%
    07:00 +23°C° 0,4 mm 5 m/S 698 mmHg 59%
    08:00 +26°C° 0,4 mm 6 m/S 698 mmHg 59%
    09:00 +27°C° 0,9 mm 6 m/S 698 mmHg 55%
    10:00 +29°C° 0,9 mm 6 m/S 698 mmHg 50%
    11:00 +30°C° 0,9 mm 6 m/S 698 mmHg 45%
    12:00 +30°C° 0,9 mm 6 m/S 697 mmHg 45%
    13:00 +32°C° 0,9 mm 6 m/S 697 mmHg 45%
    14:00 +32°C° 0,9 mm 5 m/S 696 mmHg 45%
    15:00 +30°C° 1 mm 6 m/S 696 mmHg 47%
    16:00 +30°C° 1 mm 6 m/S 695 mmHg 49%
    17:00 +29°C° 1 mm 6 m/S 695 mmHg 51%
    18:00 +28°C° 0,4 mm 5 m/S 695 mmHg 55%
    19:00 +27°C° 0,4 mm 5 m/S 695 mmHg 59%
    20:00 +26°C° 0,4 mm 4 m/S 695 mmHg 63%
    21:00 +25°C° 0,1 mm 5 m/S 694 mmHg 65%
    22:00 +25°C° 0,1 mm 5 m/S 694 mmHg 67%
    23:00 +23°C° 0,1 mm 5 m/S 694 mmHg 69%

    26 Januar, Freitag

    Zeit Temperatur Niederschläge Wind Luftdruck Luftfeuchtigkeit
    00:00 +23°C° 0,1 mm 5 m/S 694 mmHg 69%
    01:00 +22°C° 0,1 mm 5 m/S 694 mmHg 70%
    02:00 +22°C° 0,1 mm 4 m/S 694 mmHg 71%
    03:00 +22°C° 0,5 mm 4 m/S 694 mmHg 73%
    04:00 +21°C° 0,5 mm 4 m/S 694 mmHg 76%
    05:00 +21°C° 0,5 mm 4 m/S 694 mmHg 78%
    06:00 +21°C° 0,6 mm 4 m/S 694 mmHg 75%
    07:00 +22°C° 0,6 mm 3 m/S 695 mmHg 72%
    08:00 +24°C° 0,6 mm 2 m/S 695 mmHg 69%
    09:00 +26°C° 0,2 mm 2 m/S 695 mmHg 61%
    10:00 +28°C° 0,2 mm 2 m/S 695 mmHg 53%
    11:00 +29°C° 0,2 mm 1 m/S 695 mmHg 45%
    12:00 +30°C° 0,2 mm 1 m/S 695 mmHg 42%
    13:00 +31°C° 0,2 mm 1 m/S 694 mmHg 39%
    14:00 +32°C° 0,2 mm 1 m/S 694 mmHg 35%
    15:00 +34°C° 0 mm 2 m/S 693 mmHg 34%
    16:00 +34°C° 0 mm 2 m/S 693 mmHg 33%
    17:00 +34°C° 0 mm 3 m/S 693 mmHg 31%
    18:00 +33°C° 0 mm 3 m/S 693 mmHg 35%
    19:00 +30°C° 0 mm 3 m/S 693 mmHg 39%
    20:00 +29°C° 0 mm 4 m/S 693 mmHg 42%
    21:00 +28°C° 0,2 mm 4 m/S 693 mmHg 47%
    22:00 +27°C° 0,2 mm 4 m/S 693 mmHg 52%
    23:00 +26°C° 0,2 mm 4 m/S 693 mmHg 56%
    Mehr zeigen